Weather in Kyardla

Estonia     58°59′43″N   22°44′43″E
temp.,
°C
wind,
m/s
gust,
m/s
humid.,
%
clouds,
%
prec.,
mm/h
press.,
hPa
HPBL,
m
1 august, sun
sun100:00+16s36915 0.0 1000164
03:00+16ssw511850 0.1 999484
06:00+17ssw51081100 0.0 998696
09:00+18ssw688575 1.6 998771
12:00+18sw368751 8.7 999584
15:00+20wsw796318 9.3 10001376
18:00+19wsw7106675 0.2 10021334
21:00+17sw610677 0.2 1003940
2 august, mon
mon200:00+15ssw498019 0.0 1003353
03:00+15ssw3889100 0.5 1002254
06:00+15ssw3686100 0.3 1002166
09:00+19sw466997 0.4 10021054
12:00+20wsw675550 0.0 10021540
15:00+20wsw675361 0.0 10021505
18:00+19wsw67582 0.0 10021443
21:00+16wsw47690 0.1 1002558
3 august, tue
tue300:00+15wnw478011 0.0 1002438
03:00+16nw6873100 0.2 1003863
06:00+16nw6861100 0.1 10051171
09:00+17nw68535 0.1 10061715
12:00+19wnw684913 0.0 10081813
15:00+19wnw68495 0.0 10091734
18:00+18wnw57535 0.0 10101510
21:00+16wnw35625 0.0 1011441
4 august, wed
wed400:00+14w34665 0.0 1012307
03:00+13wsw23695 0.0 1013235
06:00+13ssw117298 0.0 101483
09:00+16ne116289 0.0 1015290
12:00+18e3454100 0.1 10151136
15:00+20ese445057 0.1 10151292
18:00+21se345223 0.1 10141262
21:00+17sse23685 0.4 1014125
5 august, thu
thu500:00+15se12752 0.0 1014133
03:00+14sse11800 0.0 101461
06:00+14ese11822 0.0 101367
09:00+18ese22670 0.0 1013344
12:00+20ene33570 0.0 10121007
15:00+21ene335318 0.0 10121248
18:00+21ese44566 0.0 10111098
21:00+18e227617 0.1 101043